Weather Roundup
Issued by NWS

Home | Current Version | Previous Version | Graphics & Text | Print | Product List | Glossary Off
Versions: 1 2 3 4 5 6 7 8 9 10 11 12 13 14 15 16 17 18 19 20 21 22 23 24 25 26 27 28 29 30 31 32 33 34 35 36 37 38 39 40 41 42 43 44 45 46 47 48 49 50

000
NZUS93 KARX 211110
HRRWXR

CURRENT HOURLY OBSERVATIONS ACROSS
MUCH OF THE UPPER MISSISSIPPI VALLEY
NATIONAL WEATHER SERVICE LA CROSSE WI
600 AM CDT MON MAY 21 2018


...SOUTHEAST MINNESOTA...


CITY           SKY/WX    TMP DP  RH WIND       PRES   REMARKS
ROCHESTER      CLOUDY    55  51  86 E10       30.11F
ROCHESTER/MAYO CLOUDY    55  51  85 E7        30.11S
WINONA         CLOUDY    55  48  76 SE6       30.10S
AUSTIN         CLOUDY    55  52  88 SE7       30.09S
ALBERT LEA     LGT RAIN  55  52  88 SE9       30.08S
DODGE CENTER   CLOUDY    55  50  82 E8        30.10S
PRESTON        CLOUDY    54  49  82 E7        30.10F
OWATONNA       MOCLDY    57  52  82 E10       30.09F
FARIBAULT      CLOUDY    57  52  82 CALM      30.10S
$$

...ELSEWHERE IN MINNESOTA...


CITY           SKY/WX    TMP DP  RH WIND       PRES   REMARKS
MINNEAPOLIS    CLOUDY    60  50  69 SE9       30.11F
INTNL FALLS    FAIR      38  35  89 CALM      30.14S
DULUTH         FAIR      46  33  60 VRB5      30.17S
RED WING       CLOUDY    59  43  55 E6        30.10F
REDWOOD FALLS  LGT RAIN  56  56 100 E3        30.07F FOG
MANKATO        CLOUDY    55  54  94 E9        30.08F
WORTHINGTON    CLOUDY    54  53  97 E8        30.06F FOG
FAIRMONT       CLOUDY    55  54  96 E7        30.07F FOG
$$

...SOUTHWEST WISCONSIN...


CITY           SKY/WX    TMP DP  RH WIND       PRES   REMARKS
LA CROSSE      CLOUDY    57  48  72 E3        30.12S
PRAIRIE DU CHI DRIZZLE   52  45  76 CALM      30.11S
BOSCOBEL       LGT RAIN  54  45  71 VRB3      30.12S
LONE ROCK      CLOUDY    53  45  74 E6        30.13S
PLATTEVILLE    CLOUDY    51  50  99 E12       30.10F
FORT MC COY    CLOUDY    51  44  77 E5        30.14S
CAMP DOUGLAS   CLOUDY    48  42  80 E3        30.14F
MAUSTON-NEW LI CLOUDY    50  43  76 E3        30.14F
VIROQUA        CLOUDY    52  44  75 E7        30.12S
WIS DELLS      CLOUDY    49  37  64 NE3       30.13F
$$

...ELSEWHERE IN WISCONSIN...


CITY           SKY/WX    TMP DP  RH WIND       PRES   REMARKS
MILWAUKEE      CLOUDY    46  42  86 NE6       30.17S
MADISON        CLOUDY    50  42  74 E6        30.13F
GREEN BAY      FAIR      42  37  82 NE3       30.19F
EAU CLAIRE     CLOUDY    50  43  77 NE5       30.14F
BLACK RVR FLS  PTSUNNY   50  43  76 NE3       30.14S
MEDFORD        FAIR      38  33  80 NE7       30.17F WCI  33
WAUSAU         FAIR      39  36  89 CALM      30.17F
WIS RAPIDS     FAIR      47  31  53 E7        30.16F
MARSHFIELD     FAIR      46  35  65 E7        30.15F
RICE LAKE      FAIR      44  42  94 N3        30.18F
$$

...NORTHEAST IOWA...


CITY           SKY/WX    TMP DP  RH WIND       PRES   REMARKS
WATERLOO       LGT RAIN  53  53 100 E9        30.06S
DUBUQUE        CLOUDY    51  49  92 NE6       30.09S FOG
DECORAH        CLOUDY    55  45  67 E8        30.09S
MASON CITY     LGT RAIN  55  54  96 E12       30.08F FOG
CHARLES CITY   CLOUDY    54  52  94 E9        30.08F
OELWEIN        CLOUDY    52  52 100 E9        30.09R
$$

...ELSEWHERE IN IOWA...


CITY           SKY/WX    TMP DP  RH WIND       PRES   REMARKS
DES MOINES     LGT RAIN  59  57  93 NE5       30.01S FOG
IOWA CITY      LGT RAIN  56  54  93 E6        30.06F
FORT DODGE     CLOUDY    56  55  97 E5        30.05F
MARSHALLTOWN   LGT RAIN  55  55 100 E16       30.03F
CEDAR RAPIDS   CLOUDY    54  53  97 E8        30.05S
$$

...NORTHERN ILLINOIS...


CITY           SKY/WX    TMP DP  RH WIND       PRES   REMARKS
CHICAGO-OHARE  CLOUDY    50  45  83 NE9       30.12F
CHICAGO-MIDWAY CLOUDY    52  49  89 NE7       30.12S
MOLINE         CLOUDY    55  52  89 E14       30.06F
ROCKFORD       RAIN      50  48  93 E5        30.14S FOG
PEORIA         CLOUDY    57  56  96 E6        30.06R
$$

NOTE: "FAIR" INDICATES FEW OR NO CLOUDS BELOW 12,000 FEET WITH NO
SIGNIFICANT WEATHER AND/OR OBSTRUCTIONS TO VISIBILITY. WIND
SPEEDS ARE IN MILES-PER-HOUR.




USA.gov is the U.S. government's official web portal to all federal, state and local government web resources and services.